This demonstration page uses our WeatherBlox Daily Observations layout. Learn more.

Left ArrowRight Arrow

38.20091, -84.87328

Hourly Observations for July 26, 2015

Temp ( °F °C ) Dew Point ( °F °C ) Humidity (%) Winds ( mph kmh ) Pressure ( in mb ) Visibility ( mi km ) Precip ( " mm )
12:53 am 00:53 Clear 72 22.2 67 19.4 84 84 Calm 29.94 1014 10 16 0.00 0.00
1:53 am 01:53 Clear 71 21.7 67 19.4 87 87 Calm 29.93 1014 10 16 0.00 0.00
2:53 am 02:53 Clear 70 21.1 66 18.9 87 87 Calm 29.93 1014 9 14 0.00 0.00
3:53 am 03:53 Clear 69 20.6 66 18.9 90 90 Calm 29.93 1014 7 11 0.00 0.00
4:53 am 04:53 Clear 69 20.6 66 18.9 90 90 Calm 29.93 1013 7 11 0.00 0.00
5:53 am 05:53 Clear 68 20 66 18.9 93 93 SE 5 7 29.93 1014 7 11 0.00 0.00
6:53 am 06:53 Sunny with Mist and Fog 68 20 65 18.3 90 90 Calm 29.94 1014 5 8 0.00 0.00
7:53 am 07:53 Sunny 71 21.7 68 20 90 90 Calm 29.96 1014 7 11 0.00 0.00
8:53 am 08:53 Sunny 75 23.9 68 20 79 79 SSW 5 7 29.97 1015 10 16 0.00 0.00
9:53 am 09:53 Sunny 79 26.1 69 20.6 72 72 WSW 3 6 29.96 1015 10 16 0.00 0.00
10:53 am 10:53 Sunny 82 27.8 69 20.6 65 65 SSW 6 9 29.96 1015 10 16 0.00 0.00
11:53 am 11:53 Mostly Sunny 83 28.3 69 20.6 63 63 VRB 6 9 29.98 1015 10 16 0.00 0.00
12:53 pm 12:53 Mostly Sunny 84 28.9 70 21.1 63 63 WSW 7 11 29.98 1015 10 16 0.00 0.00
1:53 pm 13:53 Mostly Cloudy 85 29.4 69 20.6 59 59 SSW 8 13 29.97 1015 10 16 0.00 0.00
2:53 pm 14:53 Partly Cloudy 87 30.6 69 20.6 55 55 VRB 3 6 29.96 1015 10 16 0.00 0.00
3:53 pm 15:53 Mostly Cloudy 85 29.4 69 20.6 59 59 WSW 7 11 29.95 1014 10 16 0.00 0.00
4:53 pm 16:53 Mostly Sunny 86 30 70 21.1 59 59 SSW 6 9 29.93 1014 10 16 0.00 0.00
5:53 pm 17:53 Sunny 85 29.4 70 21.1 61 61 VRB 5 7 29.93 1014 10 16 0.00 0.00
6:53 pm 18:53 Sunny 85 29.4 71 21.7 63 63 WSW 3 6 29.92 1013 10 16 0.00 0.00
7:53 pm 19:53 Sunny 84 28.9 70 21.1 63 63 S 3 6 29.91 1013 10 16 0.00 0.00
8:53 pm 20:53 Partly Cloudy 81 27.2 73 22.8 77 77 SW 6 9 29.92 1013 10 16 0.00 0.00
9:53 pm 21:53 Clear 81 27.2 73 22.8 77 77 WSW 3 6 29.92 1013 10 16 0.00 0.00
10:53 pm 22:53 Clear 80 26.7 73 22.8 79 79 Calm 29.93 1014 10 16 0.00 0.00
11:53 pm 23:53 Clear 78 25.6 73 22.8 85 85 Calm 29.93 1014 9 14 0.00 0.00

Powered by AerisWeather